datetime,flow volume
1933-10-01,198.34711
1933-10-02,198.34711
1933-10-03,198.34711
1933-10-04,198.34711
1933-10-05,198.34711
1933-10-06,198.34711
1933-10-07,198.34711
1933-10-08,198.34711
1933-10-09,198.34711
1933-10-10,198.34711
1933-10-11,198.34711
1933-10-12,198.34711
1933-10-13,198.34711
1933-10-14,198.34711
1933-10-15,198.34711
1933-10-16,198.34711
1933-10-17,198.34711
1933-10-18,198.34711
1933-10-19,198.34711
1933-10-20,198.34711
1933-10-21,198.34711
1933-10-22,198.34711
1933-10-23,198.34711
1933-10-24,198.34711
1933-10-25,198.34711
1933-10-26,198.34711
1933-10-27,198.34711
1933-10-28,198.34711
1933-10-29,198.34711
1933-10-30,198.34711
1933-10-31,198.34711
1933-11-01,178.5124
1933-11-02,178.5124
1933-11-03,178.5124
1933-11-04,178.5124
1933-11-05,178.5124
1933-11-06,178.5124
1933-11-07,178.5124
1933-11-08,178.5124
1933-11-09,178.5124
1933-11-10,178.5124
1933-11-11,178.5124
1933-11-12,178.5124
1933-11-13,178.5124
1933-11-14,178.5124
1933-11-15,178.5124
1933-11-16,178.5124
1933-11-17,178.5124
1933-11-18,178.5124
1933-11-19,178.5124
1933-11-20,178.5124
1933-11-21,178.5124
1933-11-22,178.5124
1933-11-23,178.5124
1933-11-24,178.5124
1933-11-25,178.5124
1933-11-26,178.5124
1933-11-27,178.5124
1933-11-28,178.5124
1933-11-29,178.5124
1933-11-30,178.5124
1933-12-01,138.84298
1933-12-02,138.84298
1933-12-03,138.84298
1933-12-04,138.84298
1933-12-05,138.84298
1933-12-06,138.84298
1933-12-07,138.84298
1933-12-08,138.84298
1933-12-09,138.84298
1933-12-10,138.84298
1933-12-11,138.84298
1933-12-12,138.84298
1933-12-13,138.84298
1933-12-14,138.84298
1933-12-15,138.84298
1933-12-16,138.84298
1933-12-17,138.84298
1933-12-18,138.84298
1933-12-19,138.84298
1933-12-20,138.84298
1933-12-21,138.84298
1933-12-22,138.84298
1933-12-23,138.84298
1933-12-24,138.84298
1933-12-25,138.84298
1933-12-26,138.84298
1933-12-27,138.84298
1933-12-28,138.84298
1933-12-29,138.84298
1933-12-30,138.84298
1933-12-31,138.84298
1934-01-01,119.00826
1934-01-02,119.00826
1934-01-03,119.00826
1934-01-04,119.00826
1934-01-05,119.00826
1934-01-06,119.00826
1934-01-07,119.00826
1934-01-08,119.00826
1934-01-09,119.00826
1934-01-10,119.00826
1934-01-11,119.00826
1934-01-12,119.00826
1934-01-13,119.00826
1934-01-14,119.00826
1934-01-15,119.00826
1934-01-16,119.00826
1934-01-17,119.00826
1934-01-18,119.00826
1934-01-19,119.00826
1934-01-20,119.00826
1934-01-21,119.00826
1934-01-22,119.00826
1934-01-23,119.00826
1934-01-24,119.00826
1934-01-25,119.00826
1934-01-26,119.00826
1934-01-27,119.00826
1934-01-28,119.00826
1934-01-29,119.00826
1934-01-30,119.00826
1934-01-31,119.00826
1934-02-01,119.00826
1934-02-02,119.00826
1934-02-03,119.00826
1934-02-04,119.00826
1934-02-05,119.00826
1934-02-06,119.00826
1934-02-07,119.00826
1934-02-08,119.00826
1934-02-09,119.00826
1934-02-10,119.00826
1934-02-11,119.00826
1934-02-12,119.00826
1934-02-13,119.00826
1934-02-14,119.00826
1934-02-15,119.00826
1934-02-16,119.00826
1934-02-17,119.00826
1934-02-18,119.00826
1934-02-19,119.00826
1934-02-20,119.00826
1934-02-21,119.00826
1934-02-22,119.00826
1934-02-23,119.00826
1934-02-24,119.00826
1934-02-25,119.00826
1934-02-26,119.00826
1934-02-27,119.00826
1934-02-28,119.00826
1934-03-01,297.52066
1934-03-02,297.52066
1934-03-03,297.52066
1934-03-04,297.52066
1934-03-05,297.52066
1934-03-06,297.52066
1934-03-07,297.52066
1934-03-08,297.52066
1934-03-09,297.52066
1934-03-10,297.52066
1934-03-11,297.52066
1934-03-12,297.52066
1934-03-13,297.52066
1934-03-14,297.52066
1934-03-15,297.52066
1934-03-16,297.52066
1934-03-17,297.52066
1934-03-18,297.52066
1934-03-19,297.52066
1934-03-20,297.52066
1934-03-21,297.52066
1934-03-22,297.52066
1934-03-23,297.52066
1934-03-24,297.52066
1934-03-25,297.52066
1934-03-26,297.52066
1934-03-27,297.52066
1934-03-28,297.52066
1934-03-29,297.52066
1934-03-30,331.23967
1934-03-31,396.69421
1934-04-01,337.19008
1934-04-02,372.89256
1934-04-03,337.19008
1934-04-04,289.58678
1934-04-05,289.58678
1934-04-06,243.96694
1934-04-07,275.70248
1934-04-08,360.99174
1934-04-09,464.13223
1934-04-10,565.28926
1934-04-11,757.68595
1934-04-12,1100.82645
1934-04-13,1309.09091
1934-04-14,1247.60331
1934-04-15,1279.33884
1934-04-16,1201.98347
1934-04-17,1128.59504
1934-04-18,1231.73554
1934-04-19,1390.41322
1934-04-20,1557.02479
1934-04-21,1755.3719
1934-04-22,1773.22314
1934-04-23,1717.68595
1934-04-24,1925.95041
1934-04-25,2042.97521
1934-04-26,1868.42975
1934-04-27,1505.45455
1934-04-28,1505.45455
1934-04-29,1471.73554
1934-04-30,1471.73554
1934-05-01,1471.73554
1934-05-02,1455.86777
1934-05-03,1406.28099
1934-05-04,1471.73554
1934-05-05,1773.22314
1934-05-06,2062.80992
1934-05-07,2201.65289
1934-05-08,2221.4876
1934-05-09,2340.49587
1934-05-10,2499.17355
1934-05-11,2578.5124
1934-05-12,2519.00826
1934-05-13,2280.99174
1934-05-14,1945.78512
1934-05-15,1717.68595
1934-05-16,1717.68595
1934-05-17,1699.83471
1934-05-18,1662.14876
1934-05-19,1610.57851
1934-05-20,1523.30579
1934-05-21,1406.28099
1934-05-22,1231.73554
1934-05-23,1114.71074
1934-05-24,1031.40496
1934-05-25,1019.50413
1934-05-26,946.1157
1934-05-27,932.2314
1934-05-28,920.33058
1934-05-29,958.01653
1934-05-30,1263.47107
1934-05-31,908.42975
1934-06-01,777.52066
1934-06-02,716.03306
1934-06-03,622.80992
1934-06-04,549.42149
1934-06-05,519.66942
1934-06-06,491.90083
1934-06-07,470.08264
1934-06-08,450.24793
1934-06-09,436.36364
1934-06-10,410.57851
1934-06-11,390.7438
1934-06-12,372.89256
1934-06-13,349.09091
1934-06-14,331.23967
1934-06-15,299.50413
1934-06-16,271.73554
1934-06-17,265.78512
1934-06-18,249.91736
1934-06-19,240.0
1934-06-20,228.09917
1934-06-21,220.16529
1934-06-22,236.03306
1934-06-23,232.06612
1934-06-24,249.91736
1934-06-25,275.70248
1934-06-26,240.0
1934-06-27,220.16529
1934-06-28,202.31405
1934-06-29,178.5124
1934-06-30,172.56198
1934-07-01,168.59504
1934-07-02,168.59504
1934-07-03,160.66116
1934-07-04,164.6281
1934-07-05,164.6281
1934-07-06,152.72727
1934-07-07,136.8595
1934-07-08,132.89256
1934-07-09,128.92562
1934-07-10,128.92562
1934-07-11,126.94215
1934-07-12,122.97521
1934-07-13,122.97521
1934-07-14,122.97521
1934-07-15,117.02479
1934-07-16,115.04132
1934-07-17,105.12397
1934-07-18,107.10744
1934-07-19,103.1405
1934-07-20,105.12397
1934-07-21,115.04132
1934-07-22,122.97521
1934-07-23,119.00826
1934-07-24,128.92562
1934-07-25,128.92562
1934-07-26,182.47934
1934-07-27,126.94215
1934-07-28,107.10744
1934-07-29,99.17355
1934-07-30,93.22314
1934-07-31,93.22314
1934-08-01,93.22314
1934-08-02,99.17355
1934-08-03,122.97521
1934-08-04,105.12397
1934-08-05,103.1405
1934-08-06,103.1405
1934-08-07,115.04132
1934-08-08,122.97521
1934-08-09,119.00826
1934-08-10,132.89256
1934-08-11,132.89256
1934-08-12,111.07438
1934-08-13,111.07438
1934-08-14,156.69421
1934-08-15,160.66116
1934-08-16,164.6281
1934-08-17,150.7438
1934-08-18,160.66116
1934-08-19,142.80992
1934-08-20,150.7438
1934-08-21,142.80992
1934-08-22,136.8595
1934-08-23,126.94215
1934-08-24,117.02479
1934-08-25,103.1405
1934-08-26,103.1405
1934-08-27,91.23967
1934-08-28,91.23967
1934-08-29,103.1405
1934-08-30,103.1405
1934-08-31,93.22314
1934-09-01,93.22314
1934-09-02,87.27273
1934-09-03,85.28926
1934-09-04,79.33884
1934-09-05,81.32231
1934-09-06,81.32231
1934-09-07,77.35537
1934-09-08,115.04132
1934-09-09,168.59504
1934-09-10,138.84298
1934-09-11,111.07438
1934-09-12,99.17355
1934-09-13,91.23967
1934-09-14,79.33884
1934-09-15,73.38843
1934-09-16,65.45455
1934-09-17,67.43802
1934-09-18,81.32231
1934-09-19,55.53719
1934-09-20,73.38843
1934-09-21,107.10744
1934-09-22,81.32231
1934-09-23,73.38843
1934-09-24,73.38843
1934-09-25,105.12397
1934-09-26,128.92562
1934-09-27,117.02479
1934-09-28,119.00826
1934-09-29,117.02479
1934-09-30,103.1405
1934-10-01,103.1405
1934-10-02,103.1405
1934-10-03,105.12397
1934-10-04,103.1405
1934-10-05,105.12397
1934-10-06,107.10744
1934-10-07,115.04132
1934-10-08,107.10744
1934-10-09,103.1405
1934-10-10,103.1405
1934-10-11,103.1405
1934-10-12,103.1405
1934-10-13,103.1405
1934-10-14,99.17355
1934-10-15,93.22314
1934-10-16,95.20661
1934-10-17,93.22314
1934-10-18,93.22314
1934-10-19,99.17355
1934-10-20,105.12397
1934-10-21,99.17355
1934-10-22,93.22314
1934-10-23,99.17355
1934-10-24,99.17355
1934-10-25,95.20661
1934-10-26,95.20661
1934-10-27,91.23967
1934-10-28,87.27273
1934-10-29,87.27273
1934-10-30,91.23967
1934-10-31,91.23967
1934-11-01,105.12397
1934-11-02,142.80992
1934-11-03,107.10744
1934-11-04,117.02479
1934-11-05,115.04132
1934-11-06,111.07438
1934-11-07,115.04132
1934-11-08,111.07438
1934-11-09,111.07438
1934-11-10,107.10744
1934-11-11,103.1405
1934-11-12,99.17355
1934-11-13,103.1405
1934-11-14,99.17355
1934-11-15,99.17355
1934-11-16,99.17355
1934-11-17,111.07438
1934-11-18,119.00826
1934-11-19,119.00826
1934-11-20,111.07438
1934-11-21,111.07438
1934-11-22,107.10744
1934-11-23,103.1405
1934-11-24,107.10744
1934-11-25,81.32231
1934-11-26,99.17355
1934-11-27,117.02479
1934-11-28,164.6281
1934-11-29,138.84298
1934-11-30,128.92562
1934-12-01,109.09091
1934-12-02,109.09091
1934-12-03,109.09091
1934-12-04,109.09091
1934-12-05,109.09091
1934-12-06,109.09091
1934-12-07,109.09091
1934-12-08,109.09091
1934-12-09,109.09091
1934-12-10,109.09091
1934-12-11,109.09091
1934-12-12,109.09091
1934-12-13,109.09091
1934-12-14,109.09091
1934-12-15,109.09091
1934-12-16,109.09091
1934-12-17,109.09091
1934-12-18,109.09091
1934-12-19,109.09091
1934-12-20,109.09091
1934-12-21,109.09091
1934-12-22,109.09091
1934-12-23,109.09091
1934-12-24,109.09091
1934-12-25,109.09091
1934-12-26,109.09091
1934-12-27,109.09091
1934-12-28,109.09091
1934-12-29,109.09091
1934-12-30,109.09091
1934-12-31,109.09091
1935-01-01,99.17355
1935-01-02,99.17355
1935-01-03,99.17355
1935-01-04,99.17355
1935-01-05,99.17355
1935-01-06,99.17355
1935-01-07,99.17355
1935-01-08,99.17355
1935-01-09,99.17355
1935-01-10,99.17355
1935-01-11,99.17355
1935-01-12,99.17355
1935-01-13,99.17355
1935-01-14,99.17355
1935-01-15,99.17355
1935-01-16,99.17355
1935-01-17,99.17355
1935-01-18,99.17355
1935-01-19,99.17355
1935-01-20,99.17355
1935-01-21,99.17355
1935-01-22,99.17355
1935-01-23,99.17355
1935-01-24,99.17355
1935-01-25,99.17355
1935-01-26,99.17355
1935-01-27,99.17355
1935-01-28,99.17355
1935-01-29,99.17355
1935-01-30,99.17355
1935-01-31,99.17355
1935-02-01,99.17355
1935-02-02,99.17355
1935-02-03,99.17355
1935-02-04,99.17355
1935-02-05,99.17355
1935-02-06,99.17355
1935-02-07,99.17355
1935-02-08,99.17355
1935-02-09,99.17355
1935-02-10,99.17355
1935-02-11,99.17355
1935-02-12,99.17355
1935-02-13,99.17355
1935-02-14,99.17355
1935-02-15,99.17355
1935-02-16,99.17355
1935-02-17,99.17355
1935-02-18,99.17355
1935-02-19,99.17355
1935-02-20,99.17355
1935-02-21,99.17355
1935-02-22,99.17355
1935-02-23,99.17355
1935-02-24,99.17355
1935-02-25,99.17355
1935-02-26,99.17355
1935-02-27,99.17355
1935-02-28,99.17355
1935-03-01,128.92562
1935-03-02,128.92562
1935-03-03,128.92562
1935-03-04,128.92562
1935-03-05,128.92562
1935-03-06,128.92562
1935-03-07,128.92562
1935-03-08,128.92562
1935-03-09,128.92562
1935-03-10,128.92562
1935-03-11,128.92562
1935-03-12,128.92562
1935-03-13,128.92562
1935-03-14,128.92562
1935-03-15,128.92562
1935-03-16,128.92562
1935-03-17,128.92562
1935-03-18,128.92562
1935-03-19,128.92562
1935-03-20,128.92562
1935-03-21,198.34711
1935-03-22,228.09917
1935-03-23,210.24793
1935-03-24,210.24793
1935-03-25,194.38017
1935-03-26,218.18182
1935-03-27,257.85124
1935-03-28,232.06612
1935-03-29,299.50413
1935-03-30,321.32231
1935-03-31,366.94215
1935-04-01,337.19008
1935-04-02,384.79339
1935-04-03,450.24793
1935-04-04,410.57851
1935-04-05,416.52893
1935-04-06,355.04132
1935-04-07,295.53719
1935-04-08,404.6281
1935-04-09,416.52893
1935-04-10,325.28926
1935-04-11,275.70248
1935-04-12,325.28926
1935-04-13,436.36364
1935-04-14,622.80992
1935-04-15,821.15702
1935-04-16,1063.1405
1935-04-17,1086.94215
1935-04-18,900.49587
1935-04-19,910.41322
1935-04-20,1231.73554
1935-04-21,1650.24793
1935-04-22,1941.81818
1935-04-23,1697.85124
1935-04-24,1517.35537
1935-04-25,1194.04959
1935-04-26,1086.94215
1935-04-27,1086.94215
1935-04-28,1243.63636
1935-04-29,1408.26446
1935-04-30,1634.38017
1935-05-01,1475.70248
1935-05-02,1368.59504
1935-05-03,1305.12397
1935-05-04,1194.04959
1935-05-05,1217.85124
1935-05-06,1461.81818
1935-05-07,1517.35537
1935-05-08,2142.14876
1935-05-09,2598.34711
1935-05-10,3014.87603
1935-05-11,3352.06612
1935-05-12,3570.24793
1935-05-13,3828.09917
1935-05-14,3490.90909
1935-05-15,3074.38017
1935-05-16,3213.22314
1935-05-17,3272.72727
1935-05-18,3332.2314
1935-05-19,2915.70248
1935-05-20,2856.19835
1935-05-21,2915.70248
1935-05-22,3352.06612
1935-05-23,3907.43802
1935-05-24,4641.32231
1935-05-25,4998.34711
1935-05-26,5256.19835
1935-05-27,5514.04959
1935-05-28,5256.19835
1935-05-29,4720.66116
1935-05-30,4581.81818
1935-05-31,4304.13223
1935-06-01,3689.2562
1935-06-02,3649.58678
1935-06-03,4046.28099
1935-06-04,4502.47934
1935-06-05,4780.16529
1935-06-06,5117.35537
1935-06-07,5256.19835
1935-06-08,5335.53719
1935-06-09,5295.86777
1935-06-10,5573.55372
1935-06-11,5593.38843
1935-06-12,5494.21488
1935-06-13,5395.04132
1935-06-14,5474.38017
1935-06-15,5434.71074
1935-06-16,4720.66116
1935-06-17,3669.42149
1935-06-18,3312.39669
1935-06-19,3471.07438
1935-06-20,3689.2562
1935-06-21,3709.09091
1935-06-22,3371.90083
1935-06-23,3213.22314
1935-06-24,2975.20661
1935-06-25,2558.67769
1935-06-26,2320.66116
1935-06-27,2320.66116
1935-06-28,2062.80992
1935-06-29,1834.71074
1935-06-30,1852.56198
1935-07-01,1729.58678
1935-07-02,1618.5124
1935-07-03,1602.64463
1935-07-04,1434.04959
1935-07-05,1305.12397
1935-07-06,1170.24793
1935-07-07,1158.34711
1935-07-08,1158.34711
1935-07-09,1146.44628
1935-07-10,1075.04132
1935-07-11,985.78512
1935-07-12,910.41322
1935-07-13,888.59504
1935-07-14,795.3719
1935-07-15,706.1157
1935-07-16,640.66116
1935-07-17,577.19008
1935-07-18,585.12397
1935-07-19,577.19008
1935-07-20,630.7438
1935-07-21,559.33884
1935-07-22,533.55372
1935-07-23,491.90083
1935-07-24,430.41322
1935-07-25,384.79339
1935-07-26,372.89256
1935-07-27,331.23967
1935-07-28,331.23967
1935-07-29,295.53719
1935-07-30,295.53719
1935-07-31,331.23967
1935-08-01,301.4876
1935-08-02,273.71901
1935-08-03,257.85124
1935-08-04,234.04959
1935-08-05,224.13223
1935-08-06,200.33058
1935-08-07,204.29752
1935-08-08,228.09917
1935-08-09,273.71901
1935-08-10,224.13223
1935-08-11,257.85124
1935-08-12,307.43802
1935-08-13,277.68595
1935-08-14,273.71901
1935-08-15,228.09917
1935-08-16,261.81818
1935-08-17,253.8843
1935-08-18,238.01653
1935-08-19,216.19835
1935-08-20,192.39669
1935-08-21,192.39669
1935-08-22,208.26446
1935-08-23,228.09917
1935-08-24,220.16529
1935-08-25,313.38843
1935-08-26,357.02479
1935-08-27,267.7686
1935-08-28,234.04959
1935-08-29,228.09917
1935-08-30,224.13223
1935-08-31,261.81818
1935-09-01,319.33884
1935-09-02,238.01653
1935-09-03,216.19835
1935-09-04,192.39669
1935-09-05,182.47934
1935-09-06,182.47934
1935-09-07,253.8843
1935-09-08,392.72727
1935-09-09,307.43802
1935-09-10,253.8843
1935-09-11,224.13223
1935-09-12,204.29752
1935-09-13,188.42975
1935-09-14,174.54545
1935-09-15,174.54545
1935-09-16,174.54545
1935-09-17,170.57851
1935-09-18,164.6281
1935-09-19,160.66116
1935-09-20,150.7438
1935-09-21,148.76033
1935-09-22,148.76033
1935-09-23,154.71074
1935-09-24,142.80992
1935-09-25,188.42975
1935-09-26,247.93388
1935-09-27,406.61157
1935-09-28,313.38843
1935-09-29,283.63636
1935-09-30,273.71901
1935-10-01,261.81818
1935-10-02,220.16529
1935-10-03,212.2314
1935-10-04,208.26446
1935-10-05,200.33058
1935-10-06,192.39669
1935-10-07,182.47934
1935-10-08,178.5124
1935-10-09,170.57851
1935-10-10,160.66116
1935-10-11,164.6281
1935-10-12,158.67769
1935-10-13,160.66116
1935-10-14,160.66116
1935-10-15,158.67769
1935-10-16,154.71074
1935-10-17,148.76033
1935-10-18,144.79339
1935-10-19,148.76033
1935-10-20,154.71074
1935-10-21,168.59504
1935-10-22,158.67769
1935-10-23,154.71074
1935-10-24,154.71074
1935-10-25,160.66116
1935-10-26,144.79339
1935-10-27,144.79339
1935-10-28,142.80992
1935-10-29,154.71074
1935-10-30,148.76033
1935-10-31,142.80992
1935-11-01,128.92562
1935-11-02,148.76033
1935-11-03,138.84298
1935-11-04,150.7438
1935-11-05,97.19008
1935-11-06,148.76033
1935-11-07,148.76033
1935-11-08,146.77686
1935-11-09,144.79339
1935-11-10,148.76033
1935-11-11,144.79339
1935-11-12,115.04132
1935-11-13,134.87603000000001
1935-11-14,144.79339
1935-11-15,134.87603000000001
1935-11-16,122.97521
1935-11-17,128.92562
1935-11-18,148.76033
1935-11-19,142.80992
1935-11-20,109.09091
1935-11-21,101.15702
1935-11-22,120.99174
1935-11-23,138.84298
1935-11-24,132.89256
1935-11-25,148.76033
1935-11-26,132.89256
1935-11-27,120.99174
1935-11-28,122.97521
1935-11-29,91.23967
1935-11-30,101.15702
1935-12-01,99.17355
1935-12-02,95.20661
1935-12-03,95.20661
1935-12-04,93.22314
1935-12-05,87.27273
1935-12-06,91.23967
1935-12-07,93.22314
1935-12-08,95.20661
1935-12-09,85.28926
1935-12-10,87.27273
1935-12-11,81.32231
1935-12-12,85.28926
1935-12-13,87.27273
1935-12-14,81.32231
1935-12-15,77.35537
1935-12-16,77.35537
1935-12-17,79.33884
1935-12-18,83.30579
1935-12-19,81.32231
1935-12-20,83.30579
1935-12-21,87.27273
1935-12-22,91.23967
1935-12-23,95.20661
1935-12-24,97.19008
1935-12-25,95.20661
1935-12-26,93.22314
1935-12-27,91.23967
1935-12-28,93.22314
1935-12-29,95.20661
1935-12-30,97.19008
1935-12-31,95.20661
1936-01-01,95.20661
1936-01-02,93.22314
1936-01-03,105.12397
1936-01-04,103.1405
1936-01-05,99.17355
1936-01-06,97.19008
1936-01-07,101.15702
1936-01-08,95.20661
1936-01-09,93.22314
1936-01-10,97.19008
1936-01-11,107.10744
1936-01-12,103.1405
1936-01-13,103.1405
1936-01-14,101.15702
1936-01-15,103.1405
1936-01-16,107.10744
1936-01-17,111.07438
1936-01-18,107.10744
1936-01-19,103.1405
1936-01-20,107.10744
1936-01-21,117.02479
1936-01-22,120.99174
1936-01-23,115.04132
1936-01-24,119.00826
1936-01-25,124.95868
1936-01-26,126.94215
1936-01-27,119.00826
1936-01-28,97.19008
1936-01-29,101.15702
1936-01-30,93.22314
1936-01-31,87.27273
1936-02-01,95.20661
1936-02-02,105.12397
1936-02-03,109.09091
1936-02-04,101.15702
1936-02-05,99.17355
1936-02-06,103.1405
1936-02-07,103.1405
1936-02-08,105.12397
1936-02-09,107.10744
1936-02-10,109.09091
1936-02-11,113.05785
1936-02-12,111.07438
1936-02-13,107.10744
1936-02-14,107.10744
1936-02-15,103.1405
1936-02-16,105.12397
1936-02-17,101.15702
1936-02-18,103.1405
1936-02-19,103.1405
1936-02-20,105.12397
1936-02-21,107.10744
1936-02-22,113.05785
1936-02-23,111.07438
1936-02-24,107.10744
1936-02-25,109.09091
1936-02-26,122.97521
1936-02-27,138.84298
1936-02-28,138.84298
1936-02-29,150.7438
1936-03-01,138.84298
1936-03-02,134.87603000000001
1936-03-03,142.80992
1936-03-04,134.87603000000001
1936-03-05,150.7438
1936-03-06,164.6281
1936-03-07,188.42975
1936-03-08,208.26446
1936-03-09,220.16529
1936-03-10,267.7686
1936-03-11,247.93388
1936-03-12,241.98347
1936-03-13,277.68595
1936-03-14,277.68595
1936-03-15,261.81818
1936-03-16,238.01653
1936-03-17,234.04959
1936-03-18,238.01653
1936-03-19,216.19835
1936-03-20,220.16529
1936-03-21,261.81818
1936-03-22,297.52066
1936-03-23,275.70248
1936-03-24,224.13223
1936-03-25,212.2314
1936-03-26,194.38017
1936-03-27,194.38017
1936-03-28,190.41322
1936-03-29,202.31405
1936-03-30,224.13223
1936-03-31,255.86777
1936-04-01,212.2314
1936-04-02,178.5124
1936-04-03,172.56198
1936-04-04,166.61157
1936-04-05,170.57851
1936-04-06,156.69421
1936-04-07,186.44628
1936-04-08,261.81818
1936-04-09,319.33884
1936-04-10,418.5124
1936-04-11,636.69421
1936-04-12,963.96694
1936-04-13,1332.89256
1936-04-14,1695.86777
1936-04-15,2082.64463
1936-04-16,2717.35537
1936-04-17,3054.54545
1936-04-18,3431.40496
1936-04-19,3173.55372
1936-04-20,3471.07438
1936-04-21,4085.95041
1936-04-22,4581.81818
1936-04-23,4899.17355
1936-04-24,4462.80992
1936-04-25,4442.97521
1936-04-26,4680.99174
1936-04-27,4780.16529
1936-04-28,4621.4876
1936-04-29,4680.99174
1936-04-30,4085.95041
1936-05-01,3629.75207
1936-05-02,3907.43802
1936-05-03,5157.02479
1936-05-04,6208.26446
1936-05-05,6545.45455
1936-05-06,6446.28099
1936-05-07,5018.18182
1936-05-08,3966.94215
1936-05-09,3292.56198
1936-05-10,3292.56198
1936-05-11,3986.77686
1936-05-12,4760.33058
1936-05-13,5216.52893
1936-05-14,5157.02479
1936-05-15,5454.54545
1936-05-16,5514.04959
1936-05-17,5593.38843
1936-05-18,5157.02479
1936-05-19,4800.0
1936-05-20,4760.33058
1936-05-21,4700.82645
1936-05-22,4561.98347
1936-05-23,4343.80165
1936-05-24,4185.12397
1936-05-25,4185.12397
1936-05-26,4105.78512
1936-05-27,3966.94215
1936-05-28,3728.92562
1936-05-29,3590.08264
1936-05-30,3689.2562
1936-05-31,3689.2562
1936-06-01,3490.90909
1936-06-02,2935.53719
1936-06-03,2360.33058
1936-06-04,2023.1405
1936-06-05,1874.38017
1936-06-06,1725.61983
1936-06-07,1904.13223
1936-06-08,2519.00826
1936-06-09,2856.19835
1936-06-10,2876.03306
1936-06-11,2895.86777
1936-06-12,2737.19008
1936-06-13,2677.68595
1936-06-14,2578.5124
1936-06-15,2400.0
1936-06-16,2340.49587
1936-06-17,2142.14876
1936-06-18,2023.1405
1936-06-19,1963.63636
1936-06-20,1860.49587
1936-06-21,1681.98347
1936-06-22,1681.98347
1936-06-23,1521.32231
1936-06-24,1426.1157
1936-06-25,1398.34711
1936-06-26,1695.86777
1936-06-27,1358.67769
1936-06-28,1170.24793
1936-06-29,1182.14876
1936-06-30,1110.7438
1936-07-01,910.41322
1936-07-02,787.43802
1936-07-03,749.75207
1936-07-04,710.08264
1936-07-05,664.46281
1936-07-06,646.61157
1936-07-07,593.05785
1936-07-08,551.40496
1936-07-09,541.4876
1936-07-10,541.4876
1936-07-11,767.60331
1936-07-12,858.84298
1936-07-13,710.08264
1936-07-14,618.84298
1936-07-15,575.20661
1936-07-16,541.4876
1936-07-17,525.61983
1936-07-18,525.61983
1936-07-19,525.61983
1936-07-20,440.33058
1936-07-21,370.90909
1936-07-22,325.28926
1936-07-23,303.47107
1936-07-24,293.55372
1936-07-25,287.60331
1936-07-26,345.12397
1936-07-27,331.23967
1936-07-28,331.23967
1936-07-29,345.12397
1936-07-30,370.90909
1936-07-31,313.38843
1936-08-01,313.38843
1936-08-02,281.65289
1936-08-03,303.47107
1936-08-04,281.65289
1936-08-05,275.70248
1936-08-06,362.97521
1936-08-07,362.97521
1936-08-08,351.07438
1936-08-09,275.70248
1936-08-10,238.01653
1936-08-11,230.08264
1936-08-12,247.93388
1936-08-13,287.60331
1936-08-14,297.52066
1936-08-15,241.98347
1936-08-16,220.16529
1936-08-17,241.98347
1936-08-18,238.01653
1936-08-19,234.04959
1936-08-20,275.70248
1936-08-21,370.90909
1936-08-22,325.28926
1936-08-23,281.65289
1936-08-24,251.90083
1936-08-25,238.01653
1936-08-26,238.01653
1936-08-27,220.16529
1936-08-28,212.2314
1936-08-29,204.29752
1936-08-30,198.34711
1936-08-31,230.08264
1936-09-01,297.52066
1936-09-02,251.90083
1936-09-03,230.08264
1936-09-04,220.16529
1936-09-05,202.31405
1936-09-06,198.34711
1936-09-07,190.41322
1936-09-08,190.41322
1936-09-09,186.44628
1936-09-10,194.38017
1936-09-11,212.2314
1936-09-12,212.2314
1936-09-13,208.26446
1936-09-14,202.31405
1936-09-15,194.38017
1936-09-16,182.47934
1936-09-17,178.5124
1936-09-18,182.47934
1936-09-19,178.5124
1936-09-20,170.57851
1936-09-21,162.64463
1936-09-22,154.71074
1936-09-23,146.77686
1936-09-24,140.82645
1936-09-25,134.87603000000001
1936-09-26,150.7438
1936-09-27,176.52893
1936-09-28,178.5124
1936-09-29,170.57851
1936-09-30,162.64463
1936-10-01,166.61157
1936-10-02,158.67769
1936-10-03,158.67769
1936-10-04,150.7438
1936-10-05,150.7438
1936-10-06,150.7438
1936-10-07,142.80992
1936-10-08,140.82645
1936-10-09,128.92562
1936-10-10,128.92562
1936-10-11,124.95868
1936-10-12,124.95868
1936-10-13,124.95868
1936-10-14,124.95868
1936-10-15,119.00826
1936-10-16,119.00826
1936-10-17,119.00826
1936-10-18,115.04132
1936-10-19,119.00826
1936-10-20,180.49587
1936-10-21,166.61157
1936-10-22,162.64463
1936-10-23,150.7438
1936-10-24,136.8595
1936-10-25,132.89256
1936-10-26,136.8595
1936-10-27,136.8595
1936-10-28,132.89256
1936-10-29,122.97521
1936-10-30,146.77686
1936-10-31,192.39669
1936-11-01,204.29752
1936-11-02,196.36364
1936-11-03,93.22314
1936-11-04,107.10744
1936-11-05,184.46281
1936-11-06,180.49587
1936-11-07,172.56198
1936-11-08,122.97521
1936-11-09,119.00826
1936-11-10,140.82645
1936-11-11,136.8595
1936-11-12,132.89256
1936-11-13,140.82645
1936-11-14,150.7438
1936-11-15,146.77686
1936-11-16,150.7438
1936-11-17,146.77686